Location: Foulognes
(49.1413°N, 0.8183°W)
Time: 10:42:28
(UTC+00:00)

STARLINK-42 - Pass Details

Date: 21 October 2019
Orbit: 548 x 551 km, 53.0° (Epoch: 17 November)

Event Time Altitude Azimuth Distance (km) Brightness Sun altitude
Rises 18:00:45 0° 274° (W) 2,717 9.2 -10.2°
Reaches altitude 10° 18:03:02 10° 280° (W) 1,824 7.7 -10.6°
Maximum altitude 18:07:04 49° 356° (N) 717 4.2 -11.3°
Enters shadow 18:10:09 16° 68° (ENE) 1,473 5.2 -11.8°
